Theta_e
291 292 292 292 292 292 292 291 291 291 292 292 292 292 293 294 294 294 295 295 294 294 293 294 294 292 292 291 291 290 290 290
291 292 292 291 291 291 290 290 289 289 290 291 291 291 291 291 292 292 293 294 293 294 293 292 292 292 291 290 290 289 289 288
288 290 290 288 288 288 289 288 288 289 289 289 289 290 290 290 291 291 290 291 292 292 291 291 290 290 289 289 288 288 287 288
286 287 290 287 286 287 287 287 287 287 287 287 287 287 287 288 289 290 290 289 290 289 289 289 289 289 289 288 288 288 287 287
284 285 288 286 284 285 285 285 285 285 286 286 286 286 286 286 287 287 288 288 288 288 288 288 288 287 287 286 287 287 286 287
282 284 285 285 283 283 283 284 284 283 284 284 285 285 285 285 285 286 286 286 286 286 286 286 286 285 285 285 285 286 285 285
283 283 284 285 283 282 282 283 283 282 282 283 284 282 281 284 284 283 284 285 285 284 284 284 284 286 288 287 284 284 284 283
282 283 283 285 284 282 282 283 282 280 281 281 281 280 279 282 282 282 282 283 283 283 284 283 284 287 287 288 285 283 284 283
283 283 284 285 283 283 282 281 281 280 280 280 279 278 278 280 278 279 281 282 282 283 283 283 284 286 287 287 286 285 284 284
284 284 284 282 282 281 280 280 280 278 279 279 278 276 276 276 277 277 279 280 281 282 282 283 284 285 286 286 285 285 284 283
283 283 281 282 281 279 278 278 278 278 278 278 277 275 274 275 275 276 277 277 280 281 282 282 282 284 285 285 284 284 284 283
282 280 280 280 279 277 277 276 278 278 277 276 275 274 273 273 274 273 274 275 277 278 280 281 282 282 284 285 284 283 283 283
279 279 279 279 277 276 275 276 277 276 274 273 272 272 272 270 271 271 272 272 274 276 278 280 281 282 282 284 284 285 283 283
277 276 276 276 275 273 274 275 273 271 270 269 270 269 269 268 269 269 270 271 272 275 277 278 280 281 281 283 284 284 283 284
272 271 271 272 271 270 270 270 268 266 267 267 266 267 267 268 268 268 269 270 271 273 276 277 278 279 280 280 280 282 283 284
268 267 267 267 266 266 265 264 263 263 263 263 264 264 264 265 266 267 268 269 269 271 273 274 275 278 280 279 278 279 281 281
265 264 263 262 262 262 262 261 260 260 260 261 261 261 262 262 263 267 269 270 272 274 274 275 278 280 281 281 281 281 282 278
261 261 260 260 260 260 260 260 259 259 259 260 260 260 260 261 261 260 264 268 270 272 274 276 277 280 282 283 282 282 282 277
260 259 259 259 258 260 261 260 259 259 259 259 260 260 260 260 260 261 261 261 263 268 270 273 277 280 282 283 282 279 280 279
258 258 259 258 258 260 260 259 259 260 260 260 260 260 260 260 260 261 261 261 262 264 267 270 275 278 280 281 280 278 278 279
Wind_Speed
10 11 12 13 13 14 15 17 16 15 14 12 14 12 10 10 11 12 12 12 12 14 15 16 16 17 17 15 15 16 13 12
13 13 13 13 14 14 14 15 15 15 14 15 14 14 13 10 10 11 12 11 13 13 14 15 16 16 16 17 16 18 18 16
10 10 12 14 14 15 15 14 14 13 12 13 13 14 14 13 13 11 11 11 12 12 13 13 15 16 17 18 16 18 19 18
11 10 10 12 12 13 14 14 15 14 14 13 14 14 15 15 15 14 12 12 12 12 12 12 14 15 16 18 19 18 18 17
8 11 10 11 12 12 12 11 12 13 13 13 13 13 14 14 15 14 13 12 12 11 12 13 13 14 14 15 18 18 17 18
7 8 9 11 13 11 11 11 11 11 11 12 12 12 12 12 12 12 12 11 11 11 11 12 12 10 14 15 16 18 18 18
9 9 9 8 9 11 13 14 13 11 12 12 11 11 12 12 12 12 11 10 9 10 12 13 10 18 22 20 15 17 19 19
12 11 10 10 10 10 11 11 11 12 11 10 9 10 12 12 13 14 13 13 12 10 10 14 13 20 23 24 17 16 19 20
12 13 12 10 11 11 10 11 11 11 11 10 11 12 14 12 13 13 13 13 13 13 12 12 11 21 23 24 18 19 21 20
10 12 12 13 13 11 12 12 12 13 12 11 10 13 15 15 16 14 13 13 13 12 14 14 14 19 23 21 16 19 22 17
12 11 12 13 10 12 13 13 14 13 13 11 10 11 13 15 16 16 14 16 13 15 14 17 18 21 23 20 12 17 14 16
12 12 13 12 11 14 15 15 14 13 13 13 13 12 13 15 14 15 15 16 16 16 15 16 16 17 25 25 15 14 14 14
12 13 14 14 13 16 18 16 14 13 14 14 14 12 13 15 15 16 15 16 17 16 16 12 14 19 23 27 28 25 16 15
11 15 15 14 13 17 18 17 16 16 16 15 16 16 15 16 16 14 14 14 15 13 14 14 11 11 23 27 28 29 22 13
13 15 18 15 16 16 19 19 18 20 20 18 17 18 16 13 13 13 13 13 13 14 14 13 12 12 9 10 11 21 20 19
13 16 18 18 18 17 18 19 20 20 20 19 16 17 16 15 13 13 15 16 14 14 14 14 14 12 15 14 10 10 14 10
16 16 17 17 18 18 16 17 18 18 15 14 14 14 14 15 15 24 31 35 36 38 29 17 32 34 30 26 23 27 24 12
15 16 17 17 18 17 17 16 17 18 18 14 15 14 14 14 15 16 16 30 32 33 34 35 35 36 30 28 25 25 22 13
15 16 17 17 18 17 17 16 17 18 22 15 14 14 14 14 15 14 15 15 13 19 24 30 31 29 27 27 22 12 16 11
15 16 16 18 18 16 16 17 18 16 14 14 14 14 16 15 15 15 15 15 14 13 19 20 29 24 25 29 12 11 10 10
Wind_Direction
29 30 25 22 24 25 25 24 14 8 8 4 1 347 321 301 286 277 266 249 233 227 222 225 218 211 211 212 210 207 208 210
13 17 18 19 17 20 18 15 11 10 0 359 359 0 352 337 312 286 279 263 247 237 224 219 218 221 218 219 219 214 209 205
9 9 12 10 12 8 6 9 6 3 359 357 358 354 355 355 342 323 293 277 258 247 235 227 219 218 221 224 218 220 218 210
355 3 8 6 4 2 359 358 355 354 355 354 355 353 347 345 345 340 319 294 273 257 242 234 232 222 223 225 226 222 224 217
347 345 350 357 355 351 348 353 350 346 345 346 349 345 340 340 336 336 326 305 286 265 255 248 238 232 229 228 230 227 223 223
337 331 333 340 341 342 335 341 344 342 342 341 339 341 335 332 328 323 320 310 299 279 262 254 244 236 231 229 230 233 228 223
331 322 317 319 327 323 326 331 334 334 332 331 328 333 330 324 323 321 319 318 306 287 275 261 248 242 239 234 225 229 228 224
329 318 302 294 312 303 308 314 310 311 312 315 316 316 323 315 321 321 320 317 308 293 274 273 265 258 249 240 236 232 227 225
320 317 310 293 302 295 293 295 295 298 301 305 313 312 315 303 308 308 311 310 308 299 289 275 267 265 254 245 239 236 236 226
302 304 303 296 300 289 283 288 278 278 283 291 304 305 309 307 306 308 301 300 297 296 293 284 277 266 263 253 240 240 238 236
302 306 296 298 302 285 282 280 273 280 277 281 281 283 288 295 298 298 297 296 295 290 287 281 276 270 266 259 249 246 240 233
305 300 297 302 300 288 289 284 285 280 278 277 283 282 284 286 289 294 293 291 288 283 279 273 265 263 258 254 250 246 242 234
304 299 301 307 306 296 292 301 297 286 277 280 285 286 287 284 283 283 281 279 280 282 277 270 266 256 253 249 243 249 243 237
303 303 302 308 309 301 302 310 306 297 288 285 285 283 280 278 278 278 275 270 272 273 271 272 271 261 255 253 249 247 250 241
317 308 305 313 312 309 310 311 305 297 293 294 291 289 285 279 274 270 268 268 266 265 265 268 265 261 251 246 246 253 253 248
311 303 303 311 309 310 306 305 299 297 297 295 291 288 287 277 275 270 267 267 271 267 273 273 265 259 259 246 242 241 236 216
307 304 303 303 299 298 300 299 297 296 295 293 293 288 284 283 280 270 274 274 270 268 262 263 262 264 262 260 251 250 244 197
305 300 297 296 295 296 295 292 288 288 290 288 285 283 283 281 282 286 281 278 277 275 271 267 267 265 258 246 244 249 245 203
300 291 291 291 292 294 297 297 292 286 283 281 279 278 277 276 277 278 280 284 279 275 277 277 280 264 255 262 226 236 238 203
291 288 295 299 296 301 302 298 294 290 285 283 281 278 275 275 273 272 274 273 278 281 277 275 272 268 264 270 210 222 230 207